Regional Weather Roundup
Issued by NWS

Home | Current Version | Previous Version | Graphics & Text | Print | Product List | Glossary On
Versions: 1 2 3 4 5 6 7 8 9 10 11 12 13 14 15 16 17 18 19 20 21 22 23 24 25 26 27 28 29 30 31 32 33 34 35 36 37 38 39 40 41 42 43 44 45 46 47 48 49 50
000
ASUS43 KLMK 232110
RWRKY
KENTUCKY REGIONAL WEATHER ROUNDUP
NATIONAL WEATHER SERVICE LOUISVILLE KY
400 PM EST MON JAN 23 2017

NOTE "FAIR" INDICATES FEW OR NO CLOUDS BELOW 12,000 FEET
WITH NO SIGNIFICANT WEATHER AND/OR OBSTRUCTIONS TO VISIBILITY.

KYZ001>023-026-027-061>063-070>075-232200-
WESTERN AND SOUTH CENTRAL KENTUCKY

CITY           SKY/WX    TMP DP  RH WIND       PRES   REMARKS
PADUCAH        CLOUDY    45  35  68 NW12G18   29.78R
HENDERSON      CLOUDY    43  34  70 NW15G21   29.74R
OWENSBORO      CLOUDY    44  37  76 NW21      29.71R
HOPKINSVILLE   CLOUDY    45  37  75 NW15G21   29.72R
BOWLING GREEN  CLOUDY    46  39  76 NW10G16   29.67R
GLASGOW        CLOUDY    45  43  95 NW7G16    29.65R FOG
$$

KYZ024-025-028>034-038-045-046-053-232200-
NORTH CENTRAL KENTUCKY

CITY           SKY/WX    TMP DP  RH WIND       PRES   REMARKS
LOUISVILLE/SDF CLOUDY    47  41  80 NW14      29.62R
LOUISVILLE/LOU CLOUDY    47  42  83 NW13      29.63R
FORT KNOX      CLOUDY    44  43  94 W12       29.61R FOG
$$

KYZ035>037-039>044-047>052-055>060-089>105-232200-
NORTHEAST KENTUCKY

CITY           SKY/WX    TMP DP  RH WIND       PRES   REMARKS
LEXINGTON      LGT RAIN  48  45  89 NW14G22   29.54R FOG
COVINGTON      CLOUDY    47  45  93 NW16      29.55R
FRANKFORT      CLOUDY    47  43  86 NW13G23   29.56R FOG
$$

KYZ054-064>069-076>088-106>120-232200-
SOUTHEAST KENTUCKY

CITY           SKY/WX    TMP DP  RH WIND       PRES   REMARKS
JACKSON        LGT RAIN  48  46  93 NW8       29.45R FOG
LONDON         LGT RAIN  47  45  93 NW13      29.50R FOG
SOMERSET       CLOUDY    46  46 100 N13G21    29.56R FOG
MIDDLESBORO    RAIN      49  47  92 NW16G22   29.48R
MONTICELLO     LGT RAIN  47  45  93 NW15G21   29.57R
$$





USA.gov is the U.S. government's official web portal to all federal, state and local government web resources and services.